カタログに戻る

USA 389

運用中軍事VLEO
NORAD 60172·PAYLOAD·🇺🇸 United States

打ち上げ Jun 29, 2024 から Vandenberg Space Force Base

Loading…

次のパス (今後24時間)

TLE

古いSource: Mike McCants

元期: Feb 2, 2026, 17:24 UTC

1 60172U 24121Q   26033.72519570 0.00000000  00000-0  00000-0 0    09
2 60172  69.9970   4.7706 0002000 187.2068 172.7931 14.96713000    07

AllMySatでUSA 389をリアルタイム追跡

Download on the App Store